sat.trackr.live / text

‹ back to catalog

HAWK-3C

NORAD 48948 · 2021-059BX

PAYLOAD ACTIVE UNKNOWN

§ Identity

Operator
Country
US
Launch date
2021-06-30
Launch site
AFETR
Launch vehicle
Mass (kg)
RCS (m²)

Purposes: tech_demo

External: N2YO · Heavens-Above · Gunter

§ Orbital elements

Epoch: 2026-05-25T02:27:37.867968Z

Period
91.87 min
Inclination
97.6812°
Eccentricity
0.0005844
Mean motion
15.67466887 rev/d
Perigee alt
362.2 km
Apogee alt
370.1 km
Semi-major
6,744.3 km
B*
3.6850e-4
RAAN
345.3082°
Arg perigee
65.2539°
Mean anomaly
294.9329°
Rev number
27,423

§ Raw data

HAWK-3C1 48948U 21059BX  26145.10252162  .00039903  00000+0  36850-3 0  99952 48948  97.6812 345.3082 0005844  65.2539 294.9329 15.67466887274238

JSON: /api/v1/satellites/48948 · /tle

For live sub-satellite position, see the globe view (requires WebGL).

§ Visibility from observer

Set your observer location to see the next 7 days of passes ≥ 10°. The values pass through the URL so the page stays shareable.

No JS? Fill the form by hand. The geolocation button needs JavaScript.